User: anonymous   Login
Location: Fort Wayne
(41.1310°N, 85.1290°W)
Time: 19:30:06
(UTC-04:00)
Language:

Cosmos 1000 Rocket - Orbit

View from above orbital plane
View from above orbital plane
View from above satellite
View from above satellite

Ground track
Ground track

The orbit data is extracted from the following two-line orbital elements,

1 10777U 78034B   14298.79141632  .00000168  00000-0  15321-3 0  3759
2 10777 082.9447 228.5676 0026614 025.1268 003.6395 13.77314823837493
Epoch (UTC): 25 October 2014 18:59:38
Eccentricity: 0.0026614
inclination: 82.9447°
perigee height: 954 km
apogee height: 993 km
right ascension of ascending node: 228.5676°
argument of perigee: 25.1268°
revolutions per day: 13.77314823
mean anomaly at epoch: 3.6395°
orbit number at epoch: 83749

The dashed part of the orbit path shows where the satellite is in the earth's shadow,  

DLR